Miscellaneous Local Product
Issued by NWS Hastings, NE

Home | Current Version | Previous Version | Text Only | Print | Product List | Glossary Off
Versions: 1 2 3 4 5 6 7 8 9 10 11 12 13 14 15 16 17 18 19 20 21 22 23 24 25 26 27 28 29 30 31 32 33 34 35 36 37 38 39 40 41 42 43 44 45 46 47 48 49 50

738
AXUS43 KGID 221702
MISGRI

GID CWA HOURLY WEATHER ROUNDUP
NATIONAL WEATHER SERVICE HASTINGS NE
1200 PM CDT FRI JUL 22 2016

NOTE: "FAIR" INDICATES FEW OR NO CLOUDS BELOW 12,000 FEET WITH NO
SIGNIFICANT WEATHER AND/OR OBSTRUCTIONS TO VISIBILITY.

...SOUTH CENTRAL NEBRASKA...

CITY           SKY/WX    TMP DP  RH WIND       PRES   REMARKS
GRAND ISLAND   SUNNY     92  77  61 VRB3      29.97R HX 105
HASTINGS       SUNNY     93  77  59 NE6       29.98S HX 107
KEARNEY        SUNNY     91  77  62 E7        30.00S HX 105
ORD            SUNNY     92  77  61 NE7       29.99R HX 105
YORK           SUNNY     88  75  66 CALM      29.96S HX  97
AURORA         SUNNY     90  79  71 SE3       29.97R HX 106
LEXINGTON      SUNNY     92  75  57 E6        30.01S HX 104
HOLDREGE       CLOUDY    90  76  64 SE6       30.01R HX 102
HEBRON         MOSUNNY   89  70  53 SW8       29.96S HX  94

...NEBRASKA PANHANDLE...

CITY           SKY/WX    TMP DP  RH WIND       PRES   REMARKS
CHADRON        MOSUNNY   96  63  33 VRB6      30.06F HX  97
ALLIANCE       CLOUDY    90  62  39 SE8       30.12S HX  90
SCOTTSBLUFF    MOSUNNY   88  67  49 CALM      30.14R HX  91
SIDNEY         MOSUNNY   91  62  37 S10       30.18R HX  91

...WESTERN AND NORTH CENTRAL NEBRASKA...

CITY           SKY/WX    TMP DP  RH WIND       PRES   REMARKS
VALENTINE      SUNNY     92  68  45 MISG      30.06S HX  96
AINSWORTH      CLOUDY    86  78  75 E5        30.07S HX  98
ONEILL         PTSUNNY   88  76  67 N6        30.03S HX  99
BROKEN BOW     SUNNY     90  79  70 NE8       30.03R HX 106
IMPERIAL       SUNNY     93  67  42 CALM      30.09S HX  96
NORTH PLATTE   SUNNY     93  75  55 NE9       30.05S HX 104
MCCOOK         SUNNY     94  72  48 VRB7      30.04R HX 102

...EASTERN NEBRASKA...

CITY           SKY/WX    TMP DP  RH WIND       PRES   REMARKS
NORFOLK        SUNNY     91  74  57 E7        29.96R HX 100
SO SIOUX CITY  SUNNY     92  77  61 VRB3      29.94R HX 105
TEKAMAH        SUNNY     89  76  65 SE8       29.94R HX 100
COLUMBUS       SUNNY     88  72  58 E7        29.96R HX  94
ALBION         SUNNY     89  76  66 NE6       29.98S HX 100
OMAHA EPPLEY   MOSUNNY   90  75  61 SE17      29.95R HX 100
OFFUTT AFB     SUNNY     89  77  67 SE15      29.96R HX 100
MILLARD        SUNNY     89  76  64 SE10      29.95S HX 100
LINCOLN        SUNNY     91  74  57 S9        29.95R HX 100
NEBRASKA CITY  SUNNY     89  74  62 S14       29.98S HX  98
BEATRICE       CLOUDY    91  71  50 S14       29.96S HX  97
FALLS CITY     SUNNY     92  77  61 SE14      29.98S HX 105

...NORTHERN KANSAS...

CITY           SKY/WX    TMP DP  RH WIND       PRES   REMARKS
GOODLAND       CLOUDY    91  63  39 E7        30.11F HX  92
HILL CITY      MOSUNNY   91  68  46 S5        29.99S HX  95
NORTON         LGT RAIN  88  63  42 NE12      30.00F
SMITH CENTER   MOSUNNY   88  66  48 SE10      29.97F HX  90
BELOIT         SUNNY     95  68  41 S8        29.95F HX  99
HAYS           MOSUNNY   99  64  32 W12       29.99R HX 101
RUSSELL        SUNNY     96  66  37 SW12      29.97S HX  99
CONCORDIA      SUNNY     93  70  46 S13G20    29.97R HX  99
SALINA         SUNNY     98  68  37 S13       29.98S HX 103
TOPEKA         SUNNY     95  71  45 S13       29.99F HX 102



USA.gov is the U.S. government's official web portal to all federal, state and local government web resources and services.